Dewpoint
48 49 50 51 52 53 52 49 38 43 49 43 34 37 40 42 41 40 40 41 37 32 33 34 36 36 36 35 35 34 35 31 27 25 28 27 28 31 32 28 28 27 25 26
48 49 50 51 52 53 51 41 38 43 42 35 36 40 42 42 40 40 41 38 38 38 32 32 34 35 35 34 33 33 32 30 25 24 26 27 26 27 32 33 32 29 27 28
48 49 50 51 52 53 50 38 32 34 37 39 39 37 37 39 41 40 41 39 35 31 30 31 32 33 35 34 32 38 35 29 27 25 24 26 21 20 25 29 25 28 29 28
49 49 51 51 52 52 48 39 34 36 32 36 39 39 38 37 37 39 39 37 35 30 33 34 34 33 32 30 36 31 29 26 27 27 26 24 23 21 20 22 26 25 26 25
49 50 51 51 52 51 42 34 33 36 36 37 37 38 37 37 37 37 37 33 33 32 31 33 32 33 32 29 29 28 30 27 26 25 26 24 20 23 22 21 23 25 25 21
49 49 49 48 48 45 38 40 42 38 35 36 36 35 34 37 37 37 38 34 33 31 31 34 35 35 35 32 29 30 29 28 25 23 25 23 22 21 21 22 23 22 20 20
46 46 46 47 45 44 43 41 41 35 30 34 35 36 36 36 36 35 38 37 33 34 28 30 32 31 29 33 34 34 31 28 29 26 26 18 22 21 23 22 22 23 20 18
46 45 45 46 46 45 42 41 39 36 31 34 36 36 36 37 37 35 36 37 33 31 30 30 29 28 32 30 25 26 32 30 25 22 22 21 17 18 14 12 10 17 16 29
45 44 44 45 45 44 40 39 40 39 34 32 36 34 34 32 31 32 34 30 31 32 30 27 23 21 26 23 16 20 25 28 26 21 18 13 19 14 16 14 12 30 29 29
44 44 44 44 43 40 36 34 37 35 30 32 37 33 32 33 31 30 31 32 32 33 28 25 22 19 18 17 16 18 22 25 23 20 16 17 19 17 19 10 10 30 29 30
44 44 43 43 43 41 36 33 37 32 30 30 34 36 31 29 30 28 26 28 26 28 27 26 24 23 19 16 20 16 20 18 19 19 12 8 20 19 13 19 24 30 30 30
44 44 43 43 43 42 37 32 36 36 30 28 31 30 30 30 30 26 26 28 25 28 26 25 26 23 22 18 15 20 18 20 19 16 17 21 21 19 23 25 24 30 30 29
44 44 44 44 43 41 37 35 35 33 29 28 29 26 28 29 29 29 26 27 29 26 28 28 27 21 22 18 19 16 19 21 20 18 18 17 20 23 23 25 26 31 29 29
43 44 43 43 42 41 38 35 35 33 30 26 27 31 28 29 30 30 30 28 29 30 28 24 21 21 22 19 20 19 19 19 19 20 20 20 19 21 21 23 26 24 21 20
43 43 42 42 40 39 37 36 37 35 28 25 25 27 31 30 30 29 28 27 26 25 24 21 20 23 22 21 21 19 20 19 19 17 21 20 20 24 24 22 20 20 19 19
43 42 40 40 40 37 31 26 33 37 30 24 20 28 28 30 30 28 28 28 27 25 23 21 24 25 22 17 17 17 19 20 20 17 21 22 23 24 22 20 20 22 23 22
42 41 41 41 41 38 31 28 34 37 32 22 18 21 28 31 29 27 28 28 24 25 19 19 22 22 24 18 17 17 19 20 21 22 22 21 22 21 23 23 22 24 22 22
42 41 39 39 39 36 34 36 37 32 27 25 19 23 24 29 20 21 22 25 19 22 20 23 22 24 22 17 20 19 20 21 22 22 23 20 21 23 22 22 22 22 22 22
39 38 36 34 33 29 34 38 34 32 27 22 23 19 18 28 28 25 23 21 15 23 25 24 22 20 20 22 22 22 24 24 23 23 23 23 24 23 24 24 28 30 31 32
37 34 29 24 35 38 36 29 22 22 23 25 22 23 22 27 26 25 23 22 20 16 23 24 21 22 24 24 24 24 25 26 26 24 23 24 25 26 29 31 32 33 33 33
33 27 31 37 39 30 26 20 21 24 21 24 23 24 24 28 21 23 25 21 22 19 18 20 21 22 25 32 32 33 34 33 32 26 25 26 29 29 30 31 35 36 37 35
32 34 37 36 32 26 21 22 24 23 20 24 23 23 24 26 29 25 28 24 25 18 26 24 19 24 32 33 32 31 31 31 32 33 26 26 29 31 31 32 32 34 34 34
33 30 26 24 26 15 15 13 20 15 24 25 26 21 26 28 30 24 25 21 18 30 18 18 24 33 33 31 30 30 30 30 31 31 32 33 33 34 32 33 30 29 26 27
25 23 18 14 18 20 19 21 15 22 23 26 24 25 26 27 27 26 21 23 26 16 17 20 26 30 31 30 30 28 29 29 30 30 31 31 31 30 31 30 26 21 21 26
25 26 14 19 21 20 24 25 25 27 27 25 24 24 26 25 25 25 22 17 15 19 19 27 30 30 30 29 29 28 28 28 28 30 30 30 30 30 30 30 28 25 24 25
29 27 17 20 17 15 24 28 23 31 28 24 26 25 21 23 26 22 17 17 14 20 27 28 27 31 31 30 29 28 28 28 28 29 29 29 29 29 29 30 30 29 29 28
26 15 23 16 18 16 26 30 29 30 24 19 26 20 20 28 24 23 24 17 20 26 23 24 28 30 30 30 28 27 28 28 28 29 29 28 29 29 29 28 28 29 28 27
Lifted_Index
7 7 6 5 4 4 3 2 2 2 1 1 1 1 2 2 2 2 2 1 1 1 1 1 1 1 2 2 2 1 1 1 2 2 2 2 1 1 0 0 0 0 0 1
7 6 6 5 4 3 3 2 1 1 1 1 1 2 2 2 2 2 2 1 1 1 1 1 1 1 2 2 2 1 1 1 1 2 2 2 1 1 0 -0 -0 -0 0 0
6 6 5 4 4 3 2 1 1 1 1 1 1 2 2 2 2 2 2 1 1 1 1 1 1 1 2 2 1 1 1 1 1 1 1 1 1 1 1 0 -0 -0 -0 -0
4 4 3 3 3 3 2 1 1 1 1 2 2 2 2 2 2 2 2 2 1 1 1 1 1 1 1 2 1 1 1 1 1 1 1 1 1 1 1 1 1 0 0 0
2 2 2 1 2 2 2 1 2 2 2 2 2 2 2 2 2 2 2 2 2 1 1 1 1 1 1 1 1 1 1 1 1 1 1 1 1 1 2 1 1 1 0 0
2 2 1 1 1 2 2 3 3 2 2 2 2 2 2 2 2 2 2 2 2 2 2 2 2 2 2 1 1 1 1 1 1 0 0 0 1 2 2 1 1 1 1 1
4 3 2 2 2 2 3 4 3 3 2 2 2 2 2 2 2 2 2 3 3 3 3 3 3 3 2 2 1 1 1 1 0 0 -0 0 1 2 2 1 1 2 3 3
5 5 4 4 4 3 4 4 3 3 2 2 2 2 2 2 2 2 3 3 4 4 4 3 3 2 2 2 2 2 2 1 1 0 -0 0 2 3 3 2 2 3 4 4
6 6 6 6 6 5 5 5 4 3 2 2 3 3 2 2 3 3 3 4 5 4 4 3 2 2 3 3 3 3 2 2 1 1 1 1 2 4 4 3 3 4 4 4
7 7 7 7 7 7 6 6 5 4 4 4 4 4 4 4 4 3 4 4 5 4 4 3 2 2 3 3 2 2 2 2 1 1 1 2 3 5 5 4 4 4 4 4
6 7 7 7 7 7 7 6 6 5 5 4 5 5 5 4 4 4 4 4 4 4 3 2 2 2 2 2 2 2 2 2 2 2 2 2 4 5 5 4 4 4 4 4
5 5 6 6 7 7 7 6 6 5 4 4 4 4 5 5 4 4 4 4 4 3 3 2 2 2 2 2 2 3 3 3 3 3 3 3 4 5 5 5 4 4 4 3
4 5 5 6 6 7 7 6 6 5 4 4 4 4 5 5 5 4 4 4 4 4 4 4 3 3 3 3 3 4 4 4 4 4 4 4 5 5 4 4 4 3 3 3
4 5 5 5 6 7 7 7 6 6 5 4 5 6 6 6 5 5 5 5 5 6 5 5 5 5 5 5 5 5 5 5 5 5 5 5 5 5 4 4 4 4 4 4
4 4 4 5 6 6 7 7 7 6 6 5 6 6 7 7 6 6 5 5 5 6 5 6 6 6 6 6 6 6 6 6 6 5 5 5 6 5 5 5 5 5 5 5
3 3 4 4 5 5 6 6 6 6 6 5 5 6 6 6 7 6 6 5 5 5 5 5 5 5 5 6 6 6 6 6 6 6 6 6 6 6 5 5 5 5 5 5
2 3 3 4 4 4 5 5 6 6 6 5 5 5 5 5 6 6 6 5 5 4 4 4 4 5 5 5 5 5 5 5 6 6 6 6 6 6 5 5 5 5 5 5
2 3 3 3 4 4 4 5 5 6 5 5 4 4 4 5 5 5 5 5 5 5 5 5 5 5 5 5 4 4 4 4 5 5 6 5 5 5 5 5 5 5 5 4
2 3 3 3 3 4 4 4 5 5 5 5 4 4 4 4 4 4 4 5 5 5 5 5 4 4 4 4 3 3 3 3 3 4 5 5 5 5 4 4 5 4 4 4
2 2 2 2 3 3 4 4 5 5 5 4 4 3 3 3 3 3 4 4 4 4 4 4 3 3 3 3 2 2 2 2 3 3 4 4 4 4 4 4 4 4 4 3
2 2 2 2 3 3 3 3 4 4 4 4 3 3 3 3 2 2 3 3 3 2 3 2 2 2 2 2 1 2 2 2 2 2 3 3 4 4 4 3 3 3 3 3
2 2 2 3 3 3 3 2 2 2 2 2 2 2 2 2 2 2 2 2 2 2 2 2 2 2 1 1 1 2 2 2 2 2 2 3 3 3 3 3 2 2 2 2
2 2 2 2 2 2 2 2 2 1 1 1 2 2 2 1 1 1 2 2 2 2 2 2 2 1 1 1 2 2 2 2 2 2 3 3 3 2 2 2 2 1 1 1
2 2 2 2 2 2 2 1 1 1 1 1 1 1 1 1 1 1 2 2 2 2 2 2 1 2 2 2 2 3 3 3 3 3 3 3 2 2 2 2 2 2 1 2
2 2 1 1 1 1 1 1 1 1 1 1 1 1 1 1 1 1 2 2 2 2 1 1 1 2 3 3 3 3 4 4 5 5 4 3 3 2 2 2 2 2 2 2
1 1 1 1 1 1 1 1 1 1 1 1 1 1 1 1 1 1 1 1 1 1 1 1 2 3 3 3 3 3 4 5 6 6 5 4 3 3 2 2 2 3 3 3
1 1 1 1 1 1 1 1 1 1 1 1 1 1 1 1 1 1 1 1 1 1 1 2 2 3 4 4 3 3 4 5 6 6 6 5 4 3 3 3 2 2 3 3